Location: Caltech
(34.1382°N, 118.1253°W)
Time: 13:54:30
(UTC-07:00)

Cosmos 1125 Rocket - Visible Passes

Search period start: 27 March 2015 00:00
Search period end: 06 April 2015 00:00
Orbit: 759 x 780 km, 74.0° (Epoch: 26 March)

Date Brightness Start Highest point End Pass type
(mag) Time Alt. Az. Time Alt. Az. Time Alt. Az.
01 Apr 6.2 22:21:40 10° N 22:21:54 11° N 22:21:54 11° N visible
02 Apr 6.0 21:46:07 10° NNE 21:46:11 10° NNE 21:46:11 10° NNE visible
03 Apr 6.1 22:49:57 10° NNW 22:50:49 15° NNW 22:50:49 15° NNW visible
04 Apr 5.6 22:13:33 10° N 22:15:10 20° N 22:15:10 20° N visible
05 Apr 5.3 21:37:29 10° N 21:39:33 20° NNE 21:39:33 20° NNE visible
05 Apr 6.4 23:19:27 10° NW 23:19:52 12° NW 23:19:52 12° NW visible
